Volver al catálogo

ONEWEB-0595

ActivoComunicacionesPO
NORAD 54661·PAYLOAD·🇬🇧 United Kingdom

Lanzado Dec 8, 2022 desde Cape Canaveral Space Force Station

Loading…

Próximos Pases (próximas 24 horas)

TLE

ActualizadoSource: CelesTrak SupGP

Época: Sep 14, 2026, 17:39 UTC

1 54661C 22166V   26257.73593010  .00001513  00000+0  36686-2 0  2576
2 54661  87.9285 226.1522 0001910  79.6688 314.0902 13.21825222    16

Sigue ONEWEB-0595 en tiempo real con AllMySat

Download on the App Store